| time (UTC) | temp F | wind direction | speed MPH | gust MPH | rain 1hr in | rain 24hr in | rain mn in | humidity % | barometer mb |
| 20260906111720 | 51 | 304 | 1.0 | 1.0 | 0.00 | 0.00 | 0.00 | 99 | 1072.2 |
| 20260906110716 | 51 | 298 | 0.0 | 0.0 | 0.00 | 0.00 | 0.00 | 99 | 1072.3 |
| 20260906105716 | 50 | 297 | 0.0 | 0.0 | 0.00 | 0.00 | 0.00 | 99 | 1071.9 |
| 20260906104712 | 50 | 298 | 0.0 | 0.0 | 0.00 | 0.00 | 0.00 | 99 | 1071.8 |
| 20260906103709 | 51 | 302 | 0.0 | 1.0 | 0.00 | 0.00 | 0.00 | 99 | 1071.5 |
| 20260906102706 | 52 | 290 | 0.0 | 0.0 | 0.00 | 0.00 | 0.00 | 99 | 1071.5 |
| 20260906101705 | 51 | 298 | 0.0 | 0.0 | 0.00 | 0.00 | 0.00 | 99 | 1071.2 |
| 20260906100702 | 51 | 303 | 1.0 | 1.0 | 0.00 | 0.00 | 0.00 | 99 | 1071.1 |
| 20260906095702 | 51 | 298 | 0.0 | 0.0 | 0.00 | 0.00 | 0.00 | 99 | 1071.2 |
| 20260906094702 | 51 | 298 | 0.0 | 0.0 | 0.00 | 0.00 | 0.00 | 99 | 1071.1 |
| 20260906093700 | 51 | 289 | 0.0 | 0.0 | 0.00 | 0.00 | 0.00 | 99 | 1071.1 |
| 20260906092656 | 51 | 298 | 0.0 | 1.0 | 0.00 | 0.00 | 0.00 | 99 | 1071.0 |
| 20260906091652 | 52 | 293 | 1.0 | 1.0 | 0.00 | 0.00 | 0.00 | 99 | 1071.0 |
| 20260906090650 | 52 | 289 | 0.0 | 0.0 | 0.00 | 0.00 | 0.00 | 99 | 1070.8 |
| 20260906085648 | 52 | 290 | 0.0 | 0.0 | 0.00 | 0.00 | 0.00 | 99 | 1070.6 |
| 20260906084643 | 53 | 290 | 0.0 | 0.0 | 0.00 | 0.00 | 0.00 | 99 | 1070.6 |
| 20260906083643 | 52 | 293 | 0.0 | 0.0 | 0.00 | 0.00 | 0.00 | 99 | 1070.3 |
| 20260906082640 | 52 | 305 | 0.0 | 0.0 | 0.00 | 0.00 | 0.00 | 99 | 1070.3 |
| 20260906081637 | 52 | 292 | 0.0 | 0.0 | 0.00 | 0.00 | 0.00 | 99 | 1070.3 |
| 20260906080634 | 52 | 290 | 0.0 | 0.0 | 0.00 | 0.00 | 0.00 | 99 | 1070.0 |
| 20260906075629 | 52 | 289 | 0.0 | 0.0 | 0.00 | 0.00 | 0.00 | 99 | 1070.3 |
| 20260906074626 | 52 | 323 | 0.0 | 0.0 | 0.00 | 0.00 | 0.00 | 99 | 1070.3 |
| 20260906073625 | 53 | 287 | 0.0 | 0.0 | 0.00 | 0.00 | 0.00 | 99 | 1070.1 |
| 20260906072622 | 53 | 280 | 0.0 | 0.0 | 0.00 | 0.00 | 0.00 | 99 | 1070.0 |
| 20260906071620 | 53 | 307 | 0.0 | 0.0 | 0.00 | 0.00 | 0.00 | 99 | 1070.0 |
| 20260906070617 | 52 | 275 | 0.0 | 0.0 | 0.00 | 0.00 | 0.00 | 99 | 1069.9 |
| 20260906065612 | 52 | 295 | 0.0 | 0.0 | 0.00 | 0.00 | 0.00 | 99 | 1070.0 |
| 20260906064609 | 52 | 292 | 0.0 | 0.0 | 0.00 | 0.00 | 0.00 | 99 | 1069.9 |
| 20260906063604 | 52 | 297 | 0.0 | 0.0 | 0.00 | 0.00 | 0.00 | 99 | 1069.7 |
| 20260906062602 | 52 | 292 | 0.0 | 0.0 | 0.00 | 0.00 | 0.00 | 99 | 1069.8 |
| 20260906061557 | 53 | 292 | 0.0 | 0.0 | 0.00 | 0.00 | 0.00 | 99 | 1069.7 |
| 20260906060553 | 53 | 271 | 0.0 | 0.0 | 0.00 | 0.00 | 0.00 | 99 | 1069.6 |
| 20260906055551 | 53 | 285 | 0.0 | 0.0 | 0.00 | 0.00 | 0.00 | 99 | 1069.7 |
| 20260906054547 | 53 | 289 | 0.0 | 0.0 | 0.00 | 0.00 | 0.00 | 99 | 1069.4 |
| 20260906053544 | 54 | 292 | 0.0 | 0.0 | 0.00 | 0.00 | 0.00 | 99 | 1069.6 |
| 20260906052540 | 54 | 276 | 0.0 | 0.0 | 0.00 | 0.00 | 0.00 | 99 | 1069.4 |
| 20260906051538 | 54 | 272 | 0.0 | 0.0 | 0.00 | 0.00 | 0.00 | 99 | 1069.6 |
| 20260906050534 | 55 | 281 | 0.0 | 0.0 | 0.00 | 0.00 | 0.00 | 99 | 1069.7 |
| 20260906045534 | 55 | 275 | 0.0 | 0.0 | 0.00 | 0.00 | 0.00 | 99 | 1069.7 |
| 20260906044530 | 55 | 276 | 0.0 | 0.0 | 0.00 | 0.00 | 0.00 | 99 | 1069.7 |
| 20260906043527 | 56 | 276 | 0.0 | 0.0 | 0.00 | 0.00 | 0.00 | 99 | 1069.7 |
| 20260906042528 | 56 | 276 | 0.0 | 0.0 | 0.00 | 0.00 | 0.00 | 99 | 1069.8 |
| 20260906041525 | 56 | 291 | 0.0 | 0.0 | 0.00 | 0.00 | 0.00 | 99 | 1069.4 |
| 20260906040526 | 57 | 288 | 0.0 | 0.0 | 0.00 | 0.00 | 0.00 | 99 | 1069.5 |
| 20260906035522 | 57 | 304 | 0.0 | 0.0 | 0.00 | 0.00 | 0.00 | 99 | 1069.6 |
| 20260906034518 | 57 | 281 | 0.0 | 0.0 | 0.00 | 0.00 | 0.00 | 99 | 1069.5 |
| 20260906033514 | 57 | 285 | 0.0 | 0.0 | 0.00 | 0.00 | 0.00 | 99 | 1069.5 |
| 20260906032512 | 57 | 286 | 0.0 | 0.0 | 0.00 | 0.00 | 0.00 | 99 | 1069.4 |
| 20260906031508 | 57 | 270 | 0.0 | 0.0 | 0.00 | 0.00 | 0.00 | 99 | 1069.3 |
| 20260906030503 | 57 | 281 | 0.0 | 0.0 | 0.00 | 0.00 | 0.00 | 99 | 1069.0 |
| 20260906025502 | 58 | 275 | 0.0 | 0.0 | 0.00 | 0.00 | 0.00 | 99 | 1069.3 |
| 20260906024501 | 58 | 275 | 0.0 | 0.0 | 0.00 | 0.00 | 0.00 | 99 | 1069.0 |
| 20260906023458 | 58 | 284 | 0.0 | 0.0 | 0.00 | 0.00 | 0.00 | 99 | 1069.2 |
| 20260906022454 | 58 | 289 | 0.0 | 0.0 | 0.00 | 0.00 | 0.00 | 99 | 1069.1 |
| 20260906021449 | 58 | 291 | 0.0 | 0.0 | 0.00 | 0.00 | 0.00 | 99 | 1069.2 |
| 20260906020444 | 58 | 290 | 0.0 | 0.0 | 0.00 | 0.00 | 0.00 | 99 | 1069.2 |
| 20260906015443 | 58 | 285 | 0.0 | 0.0 | 0.00 | 0.00 | 0.00 | 99 | 1069.3 |
| 20260906014443 | 59 | 286 | 0.0 | 0.0 | 0.00 | 0.00 | 0.00 | 99 | 1069.2 |
| 20260906013440 | 59 | 289 | 0.0 | 0.0 | 0.00 | 0.00 | 0.00 | 99 | 1069.1 |
| 20260906012436 | 60 | 293 | 1.0 | 1.0 | 0.00 | 0.00 | 0.00 | 98 | 1069.1 |
| 20260906011431 | 61 | 285 | 0.0 | 0.0 | 0.00 | 0.00 | 0.00 | 96 | 1069.2 |
| 20260906010427 | 62 | 67 | 1.0 | 1.0 | 0.00 | 0.00 | 0.00 | 97 | 1069.5 |
| 20260906005423 | 61 | 281 | 0.0 | 0.0 | 0.00 | 0.00 | 0.00 | 97 | 1069.3 |
| 20260906004422 | 61 | 283 | 0.0 | 0.0 | 0.00 | 0.00 | 0.00 | 98 | 1069.3 |
| 20260906003419 | 61 | 284 | 0.0 | 0.0 | 0.00 | 0.00 | 0.00 | 98 | 1069.2 |
| 20260906002419 | 61 | 284 | 0.0 | 0.0 | 0.00 | 0.00 | 0.00 | 97 | 1069.2 |
| 20260906001416 | 62 | 283 | 0.0 | 0.0 | 0.00 | 0.00 | 0.00 | 96 | 1068.9 |
| 20260906000411 | 63 | 283 | 0.0 | 0.0 | 0.00 | 0.00 | 0.00 | 95 | 1069.0 |
| 20260905235406 | 63 | 284 | 0.0 | 0.0 | 0.00 | 0.00 | 0.00 | 93 | 1069.1 |
| 20260905234402 | 63 | 287 | 0.0 | 0.0 | 0.00 | 0.00 | 0.00 | 93 | 1069.2 |
| 20260905233358 | 63 | 290 | 1.0 | 1.0 | 0.00 | 0.00 | 0.00 | 94 | 1068.9 |
| 20260905232354 | 62 | 284 | 0.0 | 0.0 | 0.00 | 0.00 | 0.00 | 95 | 1068.8 |
| 20260905231349 | 62 | 284 | 0.0 | 0.0 | 0.00 | 0.00 | 0.00 | 95 | 1068.7 |
| 20260905230349 | 63 | 284 | 0.0 | 0.0 | 0.00 | 0.00 | 0.00 | 94 | 1068.8 |
| 20260905225344 | 64 | 284 | 0.0 | 0.0 | 0.00 | 0.00 | 0.00 | 91 | 1068.4 |
| 20260905224341 | 64 | 284 | 0.0 | 0.0 | 0.00 | 0.00 | 0.00 | 91 | 1068.9 |
| 20260905223339 | 64 | 282 | 0.0 | 0.0 | 0.00 | 0.00 | 0.00 | 90 | 1069.0 |
| 20260905222338 | 65 | 293 | 0.0 | 0.0 | 0.00 | 0.00 | 0.00 | 89 | 1068.9 |
| 20260905221337 | 65 | 287 | 0.0 | 0.0 | 0.00 | 0.00 | 0.00 | 87 | 1068.5 |
| 20260905220334 | 66 | 296 | 1.0 | 1.0 | 0.00 | 0.00 | 0.00 | 85 | 1068.2 |
| 20260905215329 | 66 | 296 | 0.0 | 1.0 | 0.00 | 0.00 | 0.00 | 84 | 1068.0 |
| 20260905214326 | 68 | 335 | 1.0 | 1.0 | 0.00 | 0.00 | 0.00 | 79 | 1068.0 |
| 20260905213323 | 68 | 260 | 0.0 | 1.0 | 0.00 | 0.00 | 0.00 | 78 | 1068.1 |
| 20260905212324 | 69 | 94 | 2.0 | 2.0 | 0.00 | 0.00 | 0.00 | 77 | 1067.9 |
| 20260905211319 | 68 | 280 | 0.0 | 1.0 | 0.00 | 0.00 | 0.00 | 81 | 1067.9 |
| 20260905210315 | 68 | 320 | 1.0 | 1.0 | 0.00 | 0.00 | 0.00 | 83 | 1067.8 |
| 20260905205315 | 68 | 211 | 1.0 | 1.0 | 0.00 | 0.00 | 0.00 | 83 | 1067.7 |
| 20260905204311 | 67 | 146 | 1.0 | 1.0 | 0.00 | 0.00 | 0.00 | 83 | 1068.0 |
| 20260905203305 | 68 | 293 | 0.0 | 0.0 | 0.00 | 0.00 | 0.00 | 82 | 1067.9 |
| 20260905202301 | 69 | 326 | 4.0 | 5.0 | 0.00 | 0.00 | 0.00 | 79 | 1067.9 |
| 20260905201258 | 68 | 282 | 0.0 | 0.0 | 0.00 | 0.00 | 0.00 | 80 | 1067.7 |
| 20260905200254 | 68 | 301 | 1.0 | 1.0 | 0.00 | 0.00 | 0.00 | 82 | 1067.8 |
| 20260905195253 | 68 | 178 | 1.0 | 1.0 | 0.00 | 0.00 | 0.00 | 82 | 1067.6 |
| 20260905194248 | 68 | 58 | 2.0 | 2.0 | 0.00 | 0.00 | 0.00 | 81 | 1067.5 |
| 20260905193243 | 70 | 281 | 0.0 | 1.0 | 0.00 | 0.00 | 0.00 | 76 | 1067.5 |
| 20260905192241 | 69 | 290 | 1.0 | 2.0 | 0.00 | 0.00 | 0.00 | 78 | 1067.5 |
| 20260905191238 | 68 | 336 | 0.0 | 1.0 | 0.00 | 0.00 | 0.00 | 83 | 1067.4 |
| 20260905190236 | 67 | 293 | 0.0 | 1.0 | 0.00 | 0.00 | 0.00 | 86 | 1067.6 |
| 20260905185236 | 67 | 306 | 2.0 | 2.0 | 0.00 | 0.00 | 0.00 | 86 | 1067.7 |
| 20260905184235 | 67 | 304 | 1.0 | 1.0 | 0.00 | 0.00 | 0.00 | 86 | 1067.7 |
| 20260905183230 | 66 | 315 | 1.0 | 2.0 | 0.00 | 0.00 | 0.00 | 89 | 1067.7 |
| 20260905182230 | 67 | 314 | 1.0 | 2.0 | 0.00 | 0.00 | 0.00 | 86 | 1067.7 |
| 20260905181230 | 69 | 306 | 3.0 | 3.0 | 0.00 | 0.00 | 0.00 | 79 | 1067.7 |
| 20260905180226 | 69 | 348 | 5.0 | 6.0 | 0.00 | 0.00 | 0.00 | 78 | 1067.5 |
| 20260905175227 | 68 | 320 | 3.0 | 3.0 | 0.00 | 0.00 | 0.00 | 81 | 1067.8 |
| 20260905174223 | 69 | 339 | 3.0 | 5.0 | 0.00 | 0.00 | 0.00 | 80 | 1067.6 |
| 20260905173221 | 69 | 316 | 1.0 | 1.0 | 0.00 | 0.00 | 0.00 | 80 | 1067.5 |
| 20260905172220 | 69 | 293 | 1.0 | 1.0 | 0.00 | 0.00 | 0.00 | 81 | 1067.5 |
| 20260905171218 | 68 | 332 | 3.0 | 3.0 | 0.00 | 0.00 | 0.00 | 82 | 1067.5 |
| 20260905170215 | 69 | 292 | 1.0 | 1.0 | 0.00 | 0.00 | 0.00 | 80 | 1067.3 |
| 20260905165210 | 68 | 316 | 1.0 | 1.0 | 0.00 | 0.00 | 0.00 | 84 | 1067.3 |
| 20260905164210 | 68 | 316 | 2.0 | 2.0 | 0.00 | 0.00 | 0.00 | 83 | 1067.8 |
| 20260905163208 | 68 | 333 | 3.0 | 3.0 | 0.00 | 0.00 | 0.00 | 82 | 1067.7 |
| 20260905162204 | 68 | 306 | 1.0 | 1.0 | 0.00 | 0.00 | 0.00 | 78 | 1067.8 |
| 20260905161203 | 69 | 297 | 1.0 | 2.0 | 0.00 | 0.00 | 0.00 | 82 | 1067.8 |
| 20260905160201 | 69 | 336 | 1.0 | 1.0 | 0.00 | 0.00 | 0.00 | 78 | 1067.9 |
| 20260905155201 | 67 | 75 | 2.0 | 2.0 | 0.00 | 0.00 | 0.00 | 83 | 1067.9 |
| 20260905154156 | 66 | 324 | 3.0 | 3.0 | 0.00 | 0.00 | 0.00 | 84 | 1068.1 |
| 20260905153154 | 66 | 28 | 3.0 | 3.0 | 0.00 | 0.00 | 0.00 | 82 | 1068.1 |
| 20260905152149 | 66 | 92 | 2.0 | 2.0 | 0.00 | 0.00 | 0.00 | 83 | 1068.2 |
| 20260905151145 | 65 | 313 | 1.0 | 1.0 | 0.00 | 0.00 | 0.00 | 86 | 1068.2 |
| 20260905150144 | 64 | 327 | 5.0 | 6.0 | 0.00 | 0.00 | 0.00 | 87 | 1068.4 |
| 20260905145142 | 64 | 303 | 0.0 | 0.0 | 0.00 | 0.00 | 0.00 | 89 | 1068.3 |
| 20260905144142 | 65 | 328 | 4.0 | 5.0 | 0.00 | 0.00 | 0.00 | 89 | 1068.3 |
| 20260905143137 | 64 | 311 | 1.0 | 1.0 | 0.00 | 0.00 | 0.00 | 88 | 1068.3 |
| 20260905142136 | 63 | 342 | 2.0 | 3.0 | 0.00 | 0.00 | 0.00 | 91 | 1068.4 |
| 20260905141132 | 62 | 342 | 2.0 | 2.0 | 0.00 | 0.00 | 0.00 | 93 | 1068.5 |
| 20260905140132 | 61 | 304 | 0.0 | 1.0 | 0.00 | 0.00 | 0.00 | 95 | 1068.4 |
| 20260905135129 | 60 | 300 | 1.0 | 1.0 | 0.00 | 0.00 | 0.00 | 98 | 1068.4 |
| 20260905134128 | 60 | 305 | 0.0 | 1.0 | 0.00 | 0.00 | 0.00 | 99 | 1068.5 |
| 20260905133124 | 59 | 300 | 0.0 | 1.0 | 0.00 | 0.00 | 0.00 | 99 | 1068.4 |
| 20260905132124 | 58 | 291 | 0.0 | 0.0 | 0.00 | 0.00 | 0.00 | 99 | 1068.8 |
| 20260905131120 | 58 | 319 | 1.0 | 2.0 | 0.00 | 0.00 | 0.00 | 99 | 1068.7 |
| 20260905130120 | 58 | 299 | 0.0 | 0.0 | 0.00 | 0.00 | 0.00 | 99 | 1068.8 |
| 20260905125116 | 58 | 297 | 1.0 | 1.0 | 0.00 | 0.00 | 0.00 | 99 | 1068.8 |
| 20260905124114 | 58 | 291 | 0.0 | 0.0 | 0.00 | 0.00 | 0.00 | 99 | 1068.4 |
| 20260905123112 | 57 | 298 | 0.0 | 1.0 | 0.00 | 0.00 | 0.00 | 99 | 1068.3 |
| 20260905122112 | 57 | 282 | 0.0 | 0.0 | 0.00 | 0.00 | 0.00 | 99 | 1068.1 |
| 20260905121108 | 57 | 282 | 0.0 | 0.0 | 0.00 | 0.00 | 0.00 | 99 | 1068.4 |
| 20260905120108 | 57 | 293 | 0.0 | 0.0 | 0.00 | 0.00 | 0.00 | 99 | 1068.2 |
| 20260905115108 | 57 | 312 | 1.0 | 1.0 | 0.00 | 0.00 | 0.00 | 99 | 1068.1 |
| 20260905114106 | 57 | 282 | 1.0 | 1.0 | 0.00 | 0.00 | 0.00 | 99 | 1068.1 |
| 20260905113103 | 57 | 272 | 0.0 | 0.0 | 0.00 | 0.00 | 0.00 | 99 | 1067.7 |
| 20260905112059 | 57 | 283 | 0.0 | 0.0 | 0.00 | 0.00 | 0.00 | 99 | 1067.4 |